• în Republica Moldova
  • Lista ţărilor
  • Pe 7 zile
  • Temperatura apei
  • Hartă satelitară
  • Meteo pe hartă
  • Widget-uri
  • user-avatar
    Intrare

    Meteo pe oră la Canberra

    Astăzi, 22 Ianuarie, Luni

    Timp Temperatura Precipitaţii Vânt Presiune Umiditate
    00:00 +25°C° 0 mm 1 m/s 705 mmHg 28%
    01:00 +25°C° 0 mm 1 m/s 705 mmHg 30%
    02:00 +24°C° 0 mm 1 m/s 705 mmHg 31%
    03:00 +23°C° 0 mm 1 m/s 705 mmHg 32%
    04:00 +23°C° 0 mm 1 m/s 705 mmHg 32%
    05:00 +24°C° 0 mm 1 m/s 705 mmHg 30%
    06:00 +25°C° 0 mm 1 m/s 705 mmHg 29%
    07:00 +27°C° 0 mm 1 m/s 706 mmHg 28%
    08:00 +29°C° 0 mm 2 m/s 706 mmHg 25%
    09:00 +33°C° 0 mm 3 m/s 706 mmHg 21%
    10:00 +36°C° 0 mm 4 m/s 707 mmHg 18%
    11:00 +36°C° 0 mm 4 m/s 707 mmHg 17%
    12:00 +37°C° 0 mm 5 m/s 706 mmHg 16%
    13:00 +37°C° 0 mm 5 m/s 706 mmHg 15%
    14:00 +37°C° 0 mm 4 m/s 706 mmHg 16%
    15:00 +37°C° 0 mm 3 m/s 706 mmHg 17%
    16:00 +36°C° 0 mm 3 m/s 706 mmHg 17%
    17:00 +34°C° 0 mm 3 m/s 706 mmHg 22%
    18:00 +31°C° 0 mm 2 m/s 706 mmHg 27%
    19:00 +29°C° 0 mm 2 m/s 706 mmHg 32%
    20:00 +28°C° 0 mm 2 m/s 706 mmHg 34%
    21:00 +27°C° 0 mm 2 m/s 706 mmHg 36%
    22:00 +27°C° 0 mm 1 m/s 706 mmHg 38%
    23:00 +26°C° 0 mm 1 m/s 706 mmHg 39%

    Mâine, 23 Ianuarie, Marţi

    Timp Temperatura Precipitaţii Vânt Presiune Umiditate
    00:00 +26°C° 0 mm 1 m/s 706 mmHg 39%
    01:00 +25°C° 0 mm 1 m/s 705 mmHg 40%
    02:00 +25°C° 0 mm 1 m/s 705 mmHg 41%
    03:00 +24°C° 0 mm 1 m/s 705 mmHg 42%
    04:00 +24°C° 0 mm 1 m/s 705 mmHg 43%
    05:00 +25°C° 0 mm 1 m/s 706 mmHg 43%
    06:00 +26°C° 0 mm 1 m/s 706 mmHg 42%
    07:00 +27°C° 0 mm 1 m/s 706 mmHg 41%
    08:00 +30°C° 0 mm 1 m/s 707 mmHg 34%
    09:00 +34°C° 0 mm 2 m/s 707 mmHg 28%
    10:00 +37°C° 0 mm 3 m/s 707 mmHg 21%
    11:00 +38°C° 0 mm 3 m/s 707 mmHg 19%
    12:00 +40°C° 0 mm 4 m/s 707 mmHg 17%
    13:00 +41°C° 0 mm 5 m/s 706 mmHg 16%
    14:00 +40°C° 0 mm 4 m/s 706 mmHg 18%
    15:00 +38°C° 0 mm 4 m/s 706 mmHg 20%
    16:00 +37°C° 0 mm 4 m/s 705 mmHg 23%
    17:00 +35°C° 0 mm 3 m/s 705 mmHg 31%
    18:00 +31°C° 0 mm 3 m/s 705 mmHg 40%
    19:00 +29°C° 0 mm 2 m/s 705 mmHg 49%
    20:00 +27°C° 0 mm 2 m/s 706 mmHg 58%
    21:00 +25°C° 0 mm 2 m/s 706 mmHg 67%
    22:00 +24°C° 0 mm 2 m/s 707 mmHg 75%
    23:00 +23°C° 0 mm 2 m/s 706 mmHg 79%

    Poimâine, 24 Ianuarie, Miercuri

    Timp Temperatura Precipitaţii Vânt Presiune Umiditate
    00:00 +22°C° 0 mm 1 m/s 706 mmHg 84%
    01:00 +22°C° 0 mm 1 m/s 706 mmHg 88%
    02:00 +22°C° 0 mm 1 m/s 706 mmHg 86%
    03:00 +22°C° 0 mm 1 m/s 706 mmHg 84%
    04:00 +21°C° 0 mm 2 m/s 706 mmHg 82%
    05:00 +23°C° 0 mm 1 m/s 706 mmHg 73%
    06:00 +25°C° 0 mm 1 m/s 707 mmHg 64%
    07:00 +26°C° 0 mm 1 m/s 707 mmHg 56%
    08:00 +29°C° 0 mm 2 m/s 707 mmHg 46%
    09:00 +33°C° 0 mm 3 m/s 707 mmHg 37%
    10:00 +36°C° 0 mm 4 m/s 708 mmHg 28%
    11:00 +37°C° 0 mm 3 m/s 707 mmHg 25%
    12:00 +38°C° 0 mm 3 m/s 707 mmHg 23%
    13:00 +39°C° 0 mm 3 m/s 707 mmHg 20%
    14:00 +38°C° 0,1 mm 3 m/s 706 mmHg 23%
    15:00 +37°C° 0,1 mm 3 m/s 706 mmHg 26%
    16:00 +35°C° 0,1 mm 3 m/s 705 mmHg 28%
    17:00 +34°C° 0 mm 3 m/s 705 mmHg 33%
    18:00 +31°C° 0 mm 2 m/s 705 mmHg 38%
    19:00 +30°C° 0 mm 2 m/s 705 mmHg 43%
    20:00 +28°C° 0 mm 2 m/s 706 mmHg 52%
    21:00 +26°C° 0 mm 2 m/s 706 mmHg 61%
    22:00 +25°C° 0 mm 2 m/s 707 mmHg 70%
    23:00 +24°C° 0 mm 2 m/s 706 mmHg 72%

    25 Ianuarie, Joi

    Timp Temperatura Precipitaţii Vânt Presiune Umiditate
    00:00 +24°C° 0 mm 1 m/s 706 mmHg 75%
    01:00 +23°C° 0 mm 1 m/s 706 mmHg 78%
    02:00 +23°C° 0 mm 1 m/s 706 mmHg 78%
    03:00 +23°C° 0 mm 1 m/s 706 mmHg 79%
    04:00 +23°C° 0 mm 1 m/s 706 mmHg 79%
    05:00 +23°C° 0 mm 1 m/s 706 mmHg 75%
    06:00 +24°C° 0 mm 1 m/s 707 mmHg 71%
    07:00 +25°C° 0 mm 1 m/s 707 mmHg 67%
    08:00 +28°C° 0 mm 1 m/s 707 mmHg 57%
    09:00 +30°C° 0 mm 2 m/s 708 mmHg 47%
    10:00 +34°C° 0 mm 2 m/s 708 mmHg 36%
    11:00 +35°C° 0 mm 2 m/s 707 mmHg 33%
    12:00 +36°C° 0 mm 2 m/s 707 mmHg 30%
    13:00 +37°C° 0 mm 2 m/s 707 mmHg 28%
    14:00 +36°C° 0 mm 2 m/s 706 mmHg 30%
    15:00 +35°C° 0 mm 2 m/s 706 mmHg 33%
    16:00 +34°C° 0 mm 2 m/s 706 mmHg 35%
    17:00 +32°C° 0,1 mm 2 m/s 706 mmHg 41%
    18:00 +30°C° 0,1 mm 2 m/s 706 mmHg 46%
    19:00 +29°C° 0,1 mm 3 m/s 706 mmHg 52%
    20:00 +27°C° 0,2 mm 3 m/s 707 mmHg 62%
    21:00 +25°C° 0,2 mm 2 m/s 707 mmHg 71%
    22:00 +24°C° 0,2 mm 2 m/s 707 mmHg 81%
    23:00 +23°C° 0,1 mm 2 m/s 707 mmHg 84%

    26 Ianuarie, Vineri

    Timp Temperatura Precipitaţii Vânt Presiune Umiditate
    00:00 +22°C° 0,1 mm 1 m/s 707 mmHg 87%
    01:00 +22°C° 0,1 mm 1 m/s 706 mmHg 91%
    02:00 +21°C° 0,2 mm 1 m/s 706 mmHg 90%
    03:00 +21°C° 0,2 mm 1 m/s 706 mmHg 90%
    04:00 +21°C° 0,2 mm 1 m/s 706 mmHg 90%
    05:00 +22°C° 0,1 mm 1 m/s 706 mmHg 86%
    06:00 +23°C° 0,1 mm 1 m/s 707 mmHg 82%
    07:00 +24°C° 0,1 mm 1 m/s 707 mmHg 77%
    08:00 +27°C° 0 mm 1 m/s 708 mmHg 64%
    09:00 +30°C° 0 mm 1 m/s 708 mmHg 51%
    10:00 +34°C° 0 mm 2 m/s 708 mmHg 38%
    11:00 +36°C° 0 mm 2 m/s 708 mmHg 34%
    12:00 +37°C° 0 mm 2 m/s 708 mmHg 30%
    13:00 +39°C° 0 mm 2 m/s 708 mmHg 26%
    14:00 +38°C° 0,1 mm 2 m/s 707 mmHg 28%
    15:00 +38°C° 0,1 mm 2 m/s 707 mmHg 30%
    16:00 +37°C° 0,1 mm 2 m/s 707 mmHg 32%
    17:00 +34°C° 1 mm 2 m/s 707 mmHg 42%
    18:00 +31°C° 1 mm 3 m/s 707 mmHg 51%
    19:00 +29°C° 1 mm 4 m/s 707 mmHg 61%
    20:00 +27°C° 1,4 mm 3 m/s 707 mmHg 69%
    21:00 +25°C° 1,4 mm 3 m/s 707 mmHg 77%
    22:00 +24°C° 1,4 mm 3 m/s 707 mmHg 85%
    23:00 +23°C° 0 mm 2 m/s 707 mmHg 86%

    27 Ianuarie, Sâmbătă

    Timp Temperatura Precipitaţii Vânt Presiune Umiditate
    00:00 +23°C° 0 mm 2 m/s 707 mmHg 88%
    01:00 +23°C° 0 mm 1 m/s 707 mmHg 89%
    02:00 +23°C° 0,1 mm 1 m/s 707 mmHg 91%
    03:00 +22°C° 0,1 mm 1 m/s 707 mmHg 92%
    04:00 +22°C° 0,1 mm 1 m/s 707 mmHg 93%
    05:00 +23°C° 0,3 mm 1 m/s 707 mmHg 90%
    06:00 +24°C° 0,3 mm 1 m/s 708 mmHg 87%
    07:00 +24°C° 0,3 mm 1 m/s 708 mmHg 84%
    08:00 +27°C° 0 mm 1 m/s 708 mmHg 71%
    09:00 +30°C° 0 mm 2 m/s 709 mmHg 58%
    10:00 +34°C° 0 mm 2 m/s 709 mmHg 45%
    11:00 +35°C° 0 mm 2 m/s 709 mmHg 41%
    12:00 +37°C° 0 mm 2 m/s 708 mmHg 37%
    13:00 +38°C° 0 mm 2 m/s 708 mmHg 32%
    14:00 +36°C° 3,1 mm 2 m/s 707 mmHg 41%
    15:00 +35°C° 3,1 mm 3 m/s 707 mmHg 49%
    16:00 +33°C° 3,1 mm 3 m/s 706 mmHg 58%
    17:00 +29°C° 11,8 mm 3 m/s 706 mmHg 67%
    18:00 +27°C° 11,8 mm 3 m/s 707 mmHg 77%
    19:00 +24°C° 11,8 mm 3 m/s 707 mmHg 87%
    20:00 +24°C° 0,8 mm 3 m/s 707 mmHg 88%
    21:00 +24°C° 0,8 mm 2 m/s 708 mmHg 89%
    22:00 +23°C° 0,8 mm 2 m/s 708 mmHg 90%
    23:00 +23°C° 0 mm 2 m/s 708 mmHg 91%
    Arată mai mult